GW1629 Weather Reports


time (UTC)temp
C
wind
direction
speed
KPH
gust
KPH
rain 1hr
cm
rain 24hr
cm
rain mn
cm
humidity
%
barometer
mb
20260506184516 11 0.0 0.0 0.00 1.98 1.88 97 1012.5
20260506183520 11 0.0 0.0 0.00 1.98 1.88 97 1012.3
20260506182519 12 0.0 0.0 0.00 1.98 1.88 97 1011.8
20260506181518 13 0.0 0.0 0.00 1.98 1.88 97 1011.5
20260506180520 15 0.0 0.0 0.00 1.98 1.88 97 1011.5
20260506175538 15 0.0 0.0 0.00 1.98 1.88 97 1011.5
20260506174523 17 0.0 0.0 0.00 1.98 1.88 93 1011.5
20260506173518 18 0.0 0.0 0.00 1.98 1.88 92 1011.5
20260506172517 18 0.0 0.0 0.00 1.98 1.88 90 1011.5
20260506171540 18 293 0.0 3.2 0.00 1.98 1.88 90 1011.5
20260506170515 17 270 0.0 6.4 0.00 1.98 1.88 91 1011.5
20260506165516 18 280 0.0 6.4 0.00 1.98 1.88 88 1011.5
20260506164522 18 234 0.0 3.2 0.00 1.98 1.88 89 1011.5
20260506163516 18 282 1.6 12.9 0.00 1.98 1.88 87 1011.5
20260506162544 18 250 1.6 12.9 0.00 1.98 1.88 90 1011.5
20260506161521 17 279 1.6 4.8 0.00 1.98 1.88 89 1011.3
20260506160536 17 270 0.0 17.7 0.00 1.98 1.88 90 1011.4
20260506155543 17 78 0.0 6.4 0.00 1.98 1.88 93 1011.5
20260506154537 17 0.0 0.0 0.00 1.98 1.88 92 1011.4
20260506153522 18 248 0.0 8.0 0.00 1.98 1.88 92 1011.4
20260506152521 18 248 0.0 3.2 0.00 1.98 1.88 93 1011.4
20260506151517 19 158 0.0 3.2 0.00 1.98 1.88 88 1011.4
20260506150521 20 293 0.0 4.8 0.00 1.98 1.88 88 1011.5
20260506145520 20 45 0.0 3.2 0.00 1.98 1.88 85 1011.5
20260506144519 21 213 1.6 6.4 0.00 1.98 1.88 84 1011.5
20260506143522 20 256 3.2 12.9 0.00 1.98 1.88 86 1011.5
20260506142519 20 248 1.6 8.0 0.00 1.98 1.88 86 1011.5
20260506141524 20 272 1.6 11.3 0.00 1.98 1.88 88 1011.5
20260506140516 20 233 1.6 9.7 0.00 1.98 1.88 87 1011.5
20260506135523 20 224 1.6 9.7 0.00 1.98 1.88 90 1011.5
20260506134518 20 209 1.6 8.0 0.00 1.98 1.88 88 1011.5
20260506133524 20 239 3.2 17.7 0.00 1.98 1.88 89 1011.5
20260506132523 20 172 1.6 6.4 0.00 1.98 1.88 91 1011.5
20260506131519 20 238 3.2 17.7 0.00 1.98 1.88 94 1011.5
20260506130524 19 252 4.8 17.7 0.00 1.98 1.88 95 1011.5
20260506125521 18 269 4.8 11.3 0.00 1.98 1.88 94 1011.5
20260506124518 19 277 4.8 11.3 0.00 1.98 1.88 92 1011.5
20260506123522 20 181 1.6 4.8 0.00 1.98 1.88 96 1011.5
20260506122658 19 217 1.6 3.2 0.00 1.98 1.88 96 1011.5
20260506121523 18 281 1.6 8.0 0.00 1.98 1.88 97 1011.5
20260506120519 19 273 1.6 11.3 0.00 1.98 1.88 97 1011.6
20260506115536 19 150 1.6 4.8 0.00 1.98 1.88 97 1011.6
20260506114522 19 237 1.6 6.4 0.00 1.98 1.88 97 1012.2
20260506113517 18 277 1.6 9.7 0.00 1.98 1.88 97 1012.0
20260506112516 18 283 1.6 8.0 0.00 1.98 1.88 97 1012.5
20260506111521 18 219 1.6 4.8 0.00 1.98 1.88 97 1012.4
20260506110524 18 277 1.6 8.0 0.00 1.98 1.88 97 1012.5
20260506105526 19 0.0 0.0 0.00 1.98 1.88 97 1012.5
20260506104522 18 203 0.0 3.2 0.00 1.98 1.88 97 1012.5
20260506103547 17 214 1.6 11.3 0.00 1.98 1.88 97 1012.5
20260506102521 16 293 0.0 8.0 0.00 1.98 1.88 97 1012.5
20260506101516 16 291 1.6 9.7 0.00 1.98 1.88 97 1012.5
20260506100543 16 293 0.0 6.4 0.00 1.98 1.88 97 1012.5
20260506095516 15 282 1.6 6.4 0.00 1.98 1.88 97 1012.5
20260506094515 15 293 0.0 4.8 0.00 1.98 1.88 97 1012.5
20260506093523 15 154 1.6 6.4 0.00 1.98 1.88 97 1012.5
20260506092516 15 0.0 0.0 0.00 1.98 1.88 97 1012.5
20260506091521 15 293 0.0 4.8 0.00 1.98 1.88 97 1012.4
20260506090517 14 90 0.0 3.2 0.00 1.98 1.88 97 1012.2
20260506085545 14 0.0 3.2 0.00 1.98 1.88 97 1012.4
20260506084515 13 296 1.6 9.7 0.00 1.98 1.88 97 1011.5
20260506083519 13 0.0 0.0 0.00 1.98 1.88 97 1011.7
20260506082520 13 0.0 0.0 0.00 1.98 1.88 97 1011.8
20260506081521 12 0.0 0.0 0.00 1.98 1.88 97 1011.5
20260506080516 13 280 0.0 9.7 0.00 1.98 1.88 97 1011.5
20260506072521 10 0.0 0.0 0.00 1.98 1.88 87 1011.5
20260506071539 10 0.0 0.0 0.00 1.98 1.88 81 1011.5
20260506070522 10 0.0 0.0 0.00 1.98 1.88 78 1011.5
20260506061525 8 0.0 0.0 0.20 2.08 1.88 36 1011.5
20260506060519 8 0.0 0.0 0.20 2.08 1.88 35 1011.5
20260506050525 8 0.0 0.0 0.10 1.88 1.68 37 1010.6
20260506044520 7 0.0 0.0 0.00 1.78 1.57 35 1010.5
20260506043524 7 0.0 0.0 0.00 1.88 1.57 37 1010.5
20260506042522 7 0.0 0.0 0.00 2.21 1.57 37 1010.5
20260506041537 7 0.0 0.0 0.00 2.21 1.57 37 1010.9
20260506040520 7 0.0 0.0 0.00 2.21 1.57 38 1010.7
20260506035519 7 0.0 0.0 0.00 2.21 1.57 38 1010.8
20260506034522 7 0.0 0.0 0.00 2.21 1.57 38 1011.1
20260506033518 7 0.0 0.0 0.00 2.21 1.57 40 1011.1
20260506032515 7 0.0 0.0 0.10 2.21 1.57 41 1011.3
20260506031525 7 0.0 0.0 0.10 2.21 1.57 43 1011.5
20260506030520 8 0.0 0.0 0.10 2.31 1.57 45 1011.5
20260506025525 8 0.0 0.0 0.30 2.31 1.57 46 1011.5
20260506024523 8 0.0 0.0 0.53 2.31 1.57 47 1011.5
20260506023516 8 0.0 0.0 0.64 2.31 1.57 48 1011.5
20260506022523 8 0.0 0.0 0.53 2.21 1.47 53 1011.5
20260506021521 8 0.0 0.0 0.53 2.21 1.47 58 1011.5
20260506020517 8 0.0 0.0 0.53 2.21 1.47 62 1011.5
20260506015522 8 0.0 0.0 0.30 1.98 1.27 77 1011.5
20260506014519 8 0.0 0.0 0.10 1.88 1.04 82 1011.4
20260506013523 8 203 0.0 6.4 0.00 1.78 0.94 88 1010.5
20260506012540 8 203 1.6 6.4 0.00 1.88 0.94 93 1010.6
20260506011520 8 0.0 0.0 0.00 2.11 0.94 84 1011.3
20260506010544 8 0.0 0.0 0.00 2.21 0.94 89 1011.5
20260506005520 8 0.0 0.0 0.00 2.31 0.94 96 1011.5
20260506004518 8 158 0.0 3.2 0.00 2.41 0.94 97 1011.5
20260506003522 8 157 1.6 11.3 0.00 2.51 0.94 97 1011.5
20260506002537 8 48 3.2 9.7 0.00 2.62 0.94 97 1011.5
20260506001540 8 18 6.4 16.1 0.00 2.62 0.94 97 1011.5
20260506000518 8 13 9.7 25.7 0.00 2.74 0.94 97 1012.2
20260505235525 8 21 8.0 17.7 0.10 2.84 0.94 97 1012.5
20260505234518 8 32 4.8 12.9 0.30 2.84 0.94 97 1012.5
20260505233517 8 12 6.4 14.5 0.43 2.84 0.94 97 1012.5
20260505232524 8 339 3.2 12.9 0.53 2.84 0.94 95 1012.5
20260505231517 8 14 3.2 11.3 0.64 2.84 0.94 91 1012.8
20260505230516 8 31 1.6 4.8 0.74 2.84 0.94 86 1013.5
20260505225523 8 20 0.0 3.2 0.84 2.72 0.84 79 1013.5
20260505224525 9 0.0 0.0 0.64 2.51 0.64 69 1013.9
20260505223522 9 54 0.0 6.4 0.64 2.41 0.53 68 1014.5
20260505222520 9 75 0.0 3.2 0.53 2.31 0.43 75 1014.5
20260505221544 9 113 0.0 3.2 0.41 2.21 0.30 72 1014.5
20260505220522 10 225 0.0 4.8 0.30 2.11 0.20 68 1014.0
20260505215517 10 0.0 0.0 0.10 1.88 1.88 67 1014.5
20260505214522 10 225 1.6 4.8 0.10 1.88 1.88 67 1014.5
20260505213520 10 0.0 0.0 0.00 1.78 1.78 59 1014.5
20260505212518 10 0.0 0.0 0.00 1.78 1.78 60 1014.5
20260505211520 10 0.0 0.0 0.00 1.78 1.78 57 1014.5
20260505210518 9 0.0 0.0 0.00 1.78 1.78 58 1014.5
20260505205516 9 0.0 0.0 0.00 1.78 1.78 54 1014.5
20260505204519 9 0.0 0.0 0.00 1.78 1.78 50 1014.5
20260505203558 9 0.0 0.0 0.00 1.88 1.78 51 1014.5
20260505202515 9 0.0 0.0 0.00 1.88 1.78 52 1014.5
20260505201517 9 0.0 0.0 0.00 1.88 1.78 56 1014.5
20260505200525 9 0.0 0.0 0.00 2.01 1.78 60 1014.5
20260505195522 8 0.0 0.0 0.00 2.01 1.78 64 1014.5
20260505194526 8 0.0 0.0 0.00 2.01 1.78 70 1014.5
20260505193524 8 0.0 0.0 0.00 2.01 1.78 76 1014.5
20260505192521 8 0.0 0.0 0.00 2.01 1.78 78 1014.5
20260505191524 8 0.0 0.0 0.00 2.01 1.78 81 1014.4
20260505190524 9 0.0 0.0 0.00 2.01 1.78 89 1013.9
20260505185516 9 0.0 0.0 0.00 2.11 1.78 96 1014.4